Total_Precipitation_Accumulation
1.80 1.87 1.67 1.65 1.47 1.73 2.10 2.32 2.36 2.60 2.73 2.68 2.35 2.14 2.10 2.00 1.84 1.85 2.10 2.34 2.38 2.24 2.30 2.29 2.02 1.87 1.82 1.59 1.36 1.23 1.12 1.03 0.92 0.76 0.69 0.66 0.53 0.36 0.23 0.19 0.19 0.22 0.19
1.96 2.01 1.92 1.81 1.58 1.70 2.02 2.35 2.43 2.70 2.70 2.76 2.32 2.06 1.98 2.00 1.79 1.69 1.75 2.11 2.16 2.04 2.06 2.23 2.29 2.20 2.10 1.88 1.64 1.41 1.25 1.14 1.01 0.82 0.70 0.65 0.57 0.46 0.37 0.28 0.25 0.25 0.21
2.22 2.34 2.25 1.90 1.73 1.88 2.05 2.06 2.20 2.66 2.52 2.52 2.39 2.35 2.30 2.09 1.84 1.72 1.67 1.75 1.73 1.89 1.97 2.03 2.22 2.35 2.41 2.29 2.07 1.81 1.57 1.32 1.08 0.87 0.73 0.63 0.56 0.48 0.45 0.39 0.36 0.34 0.26
2.04 2.15 1.89 1.54 1.68 1.92 2.07 2.00 2.01 2.37 2.44 2.49 2.51 2.44 2.31 2.10 1.81 1.69 1.64 1.54 1.53 1.39 1.63 1.87 2.06 2.21 2.49 2.59 2.61 2.56 2.27 1.76 1.32 1.01 0.81 0.69 0.60 0.50 0.40 0.36 0.37 0.39 0.29
1.32 1.41 1.28 1.20 1.35 1.60 1.64 1.46 1.59 1.87 2.02 2.17 2.09 1.91 1.72 1.52 1.36 1.31 1.29 1.20 1.32 1.35 1.42 1.50 1.81 1.95 2.30 2.78 3.10 3.18 2.94 2.30 1.68 1.32 1.11 0.94 0.86 0.68 0.47 0.37 0.39 0.38 0.32
0.99 1.05 1.05 0.97 1.01 1.05 1.11 1.25 1.44 1.58 1.53 1.63 1.54 1.39 1.32 1.16 1.05 1.01 0.89 0.90 1.00 0.97 1.02 1.21 1.45 1.37 1.77 2.32 2.74 3.01 3.02 2.71 2.12 1.71 1.47 1.34 1.29 1.01 0.65 0.50 0.48 0.40 0.33
0.89 0.90 0.86 0.84 0.85 0.82 0.83 0.98 1.10 1.14 1.01 1.18 1.35 1.21 1.00 0.84 0.79 0.77 0.72 0.74 0.73 0.77 0.93 1.15 1.27 1.25 1.19 1.37 1.68 2.21 2.66 2.85 2.67 2.24 1.84 1.63 1.59 1.32 0.93 0.74 0.62 0.51 0.48
0.78 0.75 0.77 0.71 0.67 0.72 0.72 0.75 0.87 0.90 0.82 0.93 1.08 1.09 0.90 0.81 0.68 0.48 0.52 0.55 0.55 0.69 0.79 0.92 1.10 1.29 1.26 1.38 1.14 1.52 2.24 2.64 2.89 2.84 2.48 2.08 1.82 1.49 1.14 0.98 0.81 0.68 0.62
0.57 0.55 0.53 0.52 0.54 0.55 0.58 0.64 0.72 0.79 0.74 0.69 0.77 0.90 0.78 0.68 0.60 0.49 0.43 0.46 0.54 0.62 0.66 0.81 0.93 1.12 1.29 1.52 1.46 1.32 1.63 1.96 2.58 3.05 2.98 2.42 1.78 1.36 1.16 1.13 1.07 0.87 0.72
0.49 0.46 0.43 0.41 0.41 0.40 0.48 0.47 0.57 0.69 0.71 0.61 0.60 0.63 0.63 0.61 0.59 0.57 0.51 0.44 0.49 0.53 0.60 0.67 0.82 1.02 1.15 1.39 1.47 1.21 1.10 1.33 1.94 2.60 2.90 2.72 2.10 1.52 1.24 1.30 1.48 1.36 1.05
0.56 0.48 0.46 0.42 0.40 0.35 0.38 0.42 0.51 0.61 0.68 0.62 0.55 0.58 0.66 0.65 0.56 0.56 0.55 0.53 0.56 0.45 0.52 0.67 0.79 0.88 0.98 1.21 1.48 1.32 1.19 1.12 1.24 1.58 1.95 2.28 2.35 2.05 1.76 1.73 1.94 2.07 1.89
0.59 0.51 0.50 0.52 0.47 0.43 0.40 0.40 0.45 0.49 0.60 0.68 0.65 0.60 0.63 0.65 0.55 0.51 0.45 0.44 0.52 0.46 0.59 0.77 0.82 0.89 0.96 1.15 1.20 1.19 1.11 0.98 0.88 0.89 1.09 1.35 1.64 1.82 1.80 1.88 2.16 2.42 2.56
0.46 0.45 0.45 0.47 0.49 0.50 0.49 0.48 0.48 0.47 0.52 0.60 0.60 0.61 0.59 0.57 0.60 0.60 0.56 0.48 0.51 0.55 0.69 0.81 0.92 0.99 1.00 1.15 1.15 1.09 0.93 0.81 0.68 0.61 0.67 0.79 0.96 1.22 1.48 1.65 1.90 2.20 2.46
0.46 0.45 0.44 0.42 0.45 0.50 0.53 0.59 0.55 0.54 0.57 0.56 0.51 0.64 0.66 0.57 0.66 0.71 0.74 0.78 0.71 0.72 0.85 0.92 1.04 1.09 1.19 1.22 1.16 1.06 0.87 0.75 0.61 0.55 0.51 0.53 0.60 0.69 0.86 1.07 1.30 1.58 1.85
0.53 0.51 0.49 0.52 0.56 0.59 0.63 0.66 0.61 0.58 0.60 0.56 0.57 0.66 0.70 0.74 0.77 0.72 0.83 0.92 0.94 0.88 0.96 1.03 0.99 0.98 1.00 1.03 0.99 0.86 0.73 0.67 0.58 0.50 0.48 0.47 0.48 0.51 0.57 0.64 0.70 0.77 0.87
0.60 0.61 0.60 0.59 0.63 0.63 0.63 0.67 0.65 0.70 0.73 0.72 0.75 0.78 0.76 0.80 0.88 0.78 0.83 0.91 0.92 0.99 1.04 0.96 0.89 0.89 0.87 0.74 0.73 0.69 0.64 0.69 0.59 0.48 0.43 0.42 0.42 0.44 0.47 0.50 0.53 0.58 0.62
0.72 0.73 0.73 0.74 0.73 0.74 0.78 0.82 0.82 0.87 0.94 1.03 1.05 1.02 1.00 1.01 1.01 0.96 1.00 0.99 0.92 1.01 1.03 0.85 0.94 1.01 0.91 0.76 0.66 0.62 0.61 0.66 0.63 0.61 0.53 0.46 0.39 0.35 0.36 0.40 0.43 0.48 0.50
0.96 0.93 0.87 0.86 0.81 0.84 0.93 0.95 0.97 0.94 0.93 0.96 1.13 1.33 1.32 1.30 1.21 1.08 1.14 1.09 1.04 1.19 1.14 1.04 1.13 1.17 1.12 0.93 0.81 0.71 0.58 0.58 0.62 0.66 0.57 0.50 0.44 0.37 0.33 0.32 0.33 0.34 0.35
1.12 1.13 1.09 0.99 0.89 0.87 0.88 0.92 0.99 1.00 1.01 1.10 1.24 1.36 1.45 1.55 1.41 1.28 1.23 1.20 1.22 1.29 1.30 1.20 1.21 1.34 1.33 1.12 0.93 0.72 0.55 0.58 0.53 0.60 0.56 0.50 0.48 0.46 0.41 0.36 0.33 0.32 0.30
1.13 1.17 1.17 1.14 1.08 0.96 0.88 0.89 0.92 0.96 1.11 1.28 1.34 1.27 1.35 1.59 1.64 1.55 1.40 1.31 1.31 1.36 1.36 1.35 1.36 1.47 1.50 1.42 1.21 0.93 0.74 0.65 0.55 0.52 0.60 0.55 0.52 0.50 0.46 0.42 0.38 0.37 0.37
1.20 1.27 1.33 1.31 1.23 1.10 0.93 0.94 1.01 0.97 1.09 1.17 1.16 1.09 1.07 1.23 1.44 1.55 1.43 1.37 1.37 1.36 1.38 1.44 1.49 1.54 1.56 1.61 1.46 1.17 0.97 0.85 0.69 0.58 0.62 0.58 0.55 0.50 0.50 0.50 0.45 0.40 0.37
1.58 1.65 1.60 1.50 1.39 1.08 1.03 1.00 0.98 1.00 1.06 1.06 1.05 1.02 0.92 0.86 0.93 1.11 1.27 1.39 1.46 1.39 1.33 1.42 1.53 1.55 1.55 1.54 1.51 1.34 1.10 0.91 0.76 0.64 0.68 0.65 0.63 0.60 0.50 0.44 0.43 0.39 0.36
1.99 2.01 1.91 1.73 1.59 1.47 1.30 1.10 1.00 0.97 0.97 0.97 1.00 0.99 0.82 0.74 0.83 0.85 0.99 1.10 1.21 1.27 1.25 1.31 1.37 1.45 1.54 1.64 1.63 1.43 1.24 1.07 0.86 0.73 0.75 0.68 0.65 0.66 0.60 0.52 0.54 0.44 0.39
2.03 2.02 1.92 1.79 1.70 1.60 1.44 1.19 1.09 0.93 0.95 0.98 1.01 1.01 0.96 0.90 0.87 0.91 0.94 0.94 0.94 1.00 1.05 1.06 1.15 1.30 1.48 1.64 1.76 1.64 1.49 1.21 1.01 0.89 0.88 0.74 0.61 0.58 0.56 0.57 0.58 0.52 0.44
1.78 1.68 1.63 1.65 1.64 1.67 1.53 1.25 1.14 1.04 1.12 1.13 1.12 1.10 1.09 1.03 1.06 0.90 0.85 0.88 0.89 0.91 0.94 0.98 1.01 1.15 1.39 1.57 1.63 1.63 1.51 1.31 1.08 0.92 0.88 0.84 0.67 0.61 0.59 0.52 0.50 0.53 0.47
1.64 1.59 1.53 1.55 1.57 1.58 1.52 1.21 1.11 1.07 1.17 1.19 1.22 1.20 1.14 1.01 0.96 0.82 0.78 0.85 0.84 0.85 0.89 0.91 0.92 0.93 1.00 1.26 1.51 1.36 1.28 1.23 1.08 0.89 0.71 0.75 0.73 0.72 0.64 0.48 0.42 0.44 0.41